Regional Weather Roundup
Issued by NWS Binghamton, NY

Home | Current Version | Previous Version | Text Only | Print | Product List | Glossary On
Versions: 1 2 3 4 5 6 7 8 9 10 11 12 13 14 15 16 17 18 19 20 21 22 23 24 25 26 27 28 29 30 31 32 33 34 35 36 37 38 39 40 41 42 43 44 45 46 47 48 49 50
000
ASUS41 KBGM 130810
RWRBGM
RWRBGM
BINGHAMTON REGIONAL WEATHER ROUNDUP
NATIONAL WEATHER SERVICE BINGHAMTON NY
400 AM EDT SUN JUL 13 2014

Note: "fair" indicates few or no clouds below 12,000 feet with no
significant weather and/or obstructions to visibility.

* = Station(s) that does not report precipitation, such as rain,
snow, etc, also no thunder or fog.

!NYZ009-015>018-022>025-036-037-044>046-055>057-062-130900
...CENTRAL NEW YORK...

CITY           SKY/WX    TMP DP  RH WIND       PRES   REMARKS
BINGHAMTON     MOCLDY    69  64  84 S8        30.05F
CORTLAND       FAIR      70  66  88 S5        30.03F
DANSVILLE      CLOUDY    69  61  75 SE8       29.97F
ELMIRA         MOCLDY    65  62  90 CALM      30.00F FOG
ITHACA         MOCLDY    70  66  86 S8        30.03S
MONTICELLO     NOT AVBL
NORWICH        CLEAR     66  63  88 CALM      30.04S
ONEONTA        CLEAR     66  61  82 SW6       30.07F
PENN YAN       MOCLDY    70  63  78 SW8       29.99F
ROME           PTCLDY    69  65  86 E7        29.99F
SIDNEY         CLEAR     70  66  88 S5        30.04F
SYRACUSE       CLOUDY    70  64  81 E3        29.95F
$$

!PAZ038>040-043-044-047-048-072-130900
...NORTHEAST PENNSYLVANIA...

CITY           SKY/WX    TMP DP  RH WIND       PRES   REMARKS
HAZLETON       CLOUDY    70  68  94 S8        30.13F
SCRANTON       MOCLDY    73  66  78 SW6       30.07S
TOWANDA*       CLOUDY    72  70  94 NW3       30.03F
$$
&&
KEY
WCI = WIND CHILL INDEX
VSB = VISIBILITY
HX  = HEAT INDEX
$$



USA.gov is the U.S. government's official web portal to all federal, state and local government web resources and services.